Flag for Mexico Weather past 2 weeks in Puerto Vallarta, Jalisco, Mexico

Now
77 °F

Passing clouds.


Feels Like: 78 °F
Forecast: 76 / 86 °F
Wind: 5 mph from North

Location: Puerto Vallarta / Lic

Current Time: Oct 2, 2014 at 7:11:47 AM

Latest Report: Oct 2, 2014 at 5:46 AM


Visibility: 10 mi

Pressure: 29.76 "Hg

Humidity: 94%

Dew point: 75 °F

Location of Puerto VallartaLocation

Historic Weather in Puerto Vallarta — Graph

°F

Puerto Vallarta temperature yesterday

Maximum temperature yesterday: 88 °F (at 12:47 PM)
Minimum temperature yesterday: 77 °F (at 1:47 AM)
Average temperature yesterday: 81 °F

Past Weeks' High & Low Weather Summary

 TemperatureHumidityPressure
High91 °F (Sep 27, 4:46 PM)94% (Sep 18, 2:46 AM)29.93 "Hg (Sep 18, 2:46 AM)
Low70 °F (Sep 21, 7:49 AM)33% (Sep 20, 2:46 PM)29.68 "Hg (Oct 1, 3:46 PM)
Average82 °F79%29.82 "Hg
* Reported Sep 17 5:48 AM — Oct 2 5:46 AM, Puerto Vallarta, Weather by CustomWeather, © 2014

Note: Actual official high and low records may vary slightly from our data, if they occured in-between our weather recording intervals... More about our weather records

Advertising

Puerto Vallarta weather history for previous 24 hours

 ConditionsComfort  
Time TempWeatherWind HumidityBarometerVisibility
5:46 AM
Oct 2
77 °FPassing clouds.5 mph94%29.76 "Hg10 mi
3:48 AM79 °FOvercast.No wind89%29.76 "Hg10 mi
2:48 AM79 °FMostly cloudy.No wind89%29.78 "Hg10 mi
1:49 AM79 °FMostly cloudy.No wind89%29.78 "Hg10 mi
11:49 PM
Oct 1
79 °FMostly cloudy.No wind89%29.79 "Hg10 mi
10:45 PM81 °FMostly cloudy.No wind89%29.78 "Hg10 mi
9:48 PM79 °FMostly cloudy.No wind94%29.75 "Hg10 mi
8:47 PM81 °FCloudy.No wind89%29.76 "Hg10 mi
7:49 PM81 °FCloudy.No wind89%29.73 "Hg10 mi
5:50 PM82 °FCloudy.No wind84%29.71 "Hg12 mi
4:47 PM84 °FMostly cloudy.8 mph74%29.70 "Hg15 mi
3:46 PM84 °FMostly cloudy.8 mph74%29.68 "Hg15 mi
2:46 PM88 °FCloudy.9 mph70%29.73 "Hg15 mi
1:46 PM86 °FPartly sunny.10 mph75%29.76 "Hg15 mi
12:47 PM88 °FBroken clouds.9 mph62%29.75 "Hg15 mi
11:47 AM86 °FCloudy.5 mph70%29.78 "Hg15 mi
10:45 AM86 °FPartly sunny.No wind70%29.73 "Hg15 mi
9:48 AM84 °FBroken clouds.No wind70%29.78 "Hg15 mi
8:47 AM79 °FOvercast.No wind89%29.74 "Hg15 mi
7:45 AM77 °FOvercast.No wind89%29.74 "Hg15 mi
Weather by CustomWeather, © 2014

See weather overviewHow to use our weather pages